QFA623 YMML-YBBN

Flight info

Callsign QFA623
Flight time 1h 55m
Altitude 37000
Route NONIX H66 BLAKA
Aircraft B38M/M-SDE1FGHILORVWXY/HB1

Departure

Time 2026-05-07 03:21
Airport Melbourne Airport (YMML)

Arrival

Time 2026-05-07 05:17
Airport Brisbane International Airport (YBBN)
Time Latitude Longitude Altitude Speed Heading
2026-05-07 02:52 -37.67146 144.84542 386 ft 0 kts 351°
2026-05-07 03:10 -37.67167 144.84546 386 ft 3 kts 351°
2026-05-07 03:10 -37.67187 144.84552 385 ft 3 kts 332°
2026-05-07 03:10 -37.67202 144.84569 385 ft 3 kts 287°
2026-05-07 03:11 -37.67205 144.84582 385 ft 0 kts 262°
2026-05-07 03:14 -37.67205 144.84581 385 ft 1 kts 262°
2026-05-07 03:14 -37.67204 144.84489 384 ft 9 kts 274°
2026-05-07 03:15 -37.67199 144.84406 383 ft 10 kts 268°
2026-05-07 03:15 -37.67208 144.84316 382 ft 11 kts 263°
2026-05-07 03:15 -37.67218 144.84214 380 ft 13 kts 263°
2026-05-07 03:15 -37.67218 144.84102 378 ft 13 kts 289°
2026-05-07 03:16 -37.67149 144.84051 380 ft 11 kts 349°
2026-05-07 03:16 -37.67077 144.84036 382 ft 10 kts 351°
2026-05-07 03:16 -37.67010 144.84023 384 ft 12 kts 352°
2026-05-07 03:16 -37.66912 144.84005 387 ft 17 kts 352°
2026-05-07 03:17 -37.66779 144.83981 392 ft 21 kts 351°
2026-05-07 03:17 -37.66635 144.83954 398 ft 20 kts 351°
2026-05-07 03:17 -37.66510 144.83931 400 ft 17 kts 351°
2026-05-07 03:17 -37.66405 144.83913 407 ft 13 kts
2026-05-07 03:18 -37.66345 144.83982 407 ft 12 kts 78°
2026-05-07 03:18 -37.66347 144.84091 409 ft 13 kts 93°
2026-05-07 03:18 -37.66353 144.84210 409 ft 14 kts 93°
2026-05-07 03:18 -37.66359 144.84341 409 ft 16 kts 93°
2026-05-07 03:19 -37.66368 144.84480 409 ft 16 kts 96°
2026-05-07 03:19 -37.66378 144.84625 409 ft 17 kts 94°
2026-05-07 03:19 -37.66382 144.84741 410 ft 10 kts 84°
2026-05-07 03:19 -37.66331 144.84782 411 ft 9 kts
2026-05-07 03:20 -37.66269 144.84781 412 ft 8 kts 343°
2026-05-07 03:20 -37.66229 144.84730 405 ft 9 kts 294°
2026-05-07 03:20 -37.66220 144.84663 412 ft 6 kts 274°
2026-05-07 03:20 -37.66206 144.84416 410 ft 58 kts 274°
2026-05-07 03:21 -37.66160 144.83653 415 ft 114 kts 274°
2026-05-07 03:21 -37.66135 144.82497 678 ft 142 kts 265°
2026-05-07 03:21 -37.66115 144.81201 1375 ft 148 kts 263°
2026-05-07 03:21 -37.66014 144.79828 2074 ft 168 kts 269°
2026-05-07 03:22 -37.65820 144.78318 2845 ft 179 kts 270°
2026-05-07 03:22 -37.65670 144.76705 3574 ft 192 kts 267°
2026-05-07 03:22 -37.65546 144.74990 4268 ft 207 kts 267°
2026-05-07 03:22 -37.65455 144.73121 4998 ft 222 kts 265°
2026-05-07 03:23 -37.65400 144.71103 5686 ft 239 kts 266°
2026-05-07 03:23 -37.65300 144.68958 6510 ft 251 kts 271°
2026-05-07 03:23 -37.64692 144.66819 7420 ft 270 kts 295°
2026-05-07 03:23 -37.63339 144.65068 8291 ft 292 kts 322°
2026-05-07 03:24 -37.61399 144.64078 9160 ft 307 kts 338°
2026-05-07 03:24 -37.59310 144.63305 9977 ft 317 kts 340°
2026-05-07 03:24 -37.57092 144.62749 10545 ft 338 kts 357°
2026-05-07 03:24 -37.54718 144.63220 11091 ft 356 kts 20°
2026-05-07 03:25 -37.52527 144.64714 11710 ft 361 kts 42°
2026-05-07 03:25 -37.50792 144.66987 12383 ft 361 kts 58°
2026-05-07 03:25 -37.49239 144.69531 13061 ft 369 kts 60°
2026-05-07 03:25 -37.47670 144.72132 13780 ft 378 kts 58°
2026-05-07 03:26 -37.45873 144.74617 14448 ft 387 kts 53°
2026-05-07 03:26 -37.44009 144.77088 15133 ft 392 kts 53°
2026-05-07 03:26 -37.42103 144.79582 15797 ft 398 kts 52°
2026-05-07 03:26 -37.40196 144.82075 16481 ft 401 kts 52°
2026-05-07 03:27 -37.38248 144.84633 17180 ft 407 kts 53°
2026-05-07 03:27 -37.36284 144.87220 17888 ft 410 kts 53°
2026-05-07 03:27 -37.34298 144.89846 18574 ft 418 kts 53°
2026-05-07 03:27 -37.32290 144.92503 19249 ft 423 kts 52°
2026-05-07 03:28 -37.30254 144.95173 19891 ft 425 kts 52°
2026-05-07 03:28 -37.28201 144.97855 20481 ft 427 kts 52°
2026-05-07 03:28 -37.26133 145.00561 21079 ft 432 kts 52°
2026-05-07 03:28 -37.24044 145.03295 21725 ft 438 kts 52°
2026-05-07 03:29 -37.21927 145.06039 22352 ft 439 kts 52°
2026-05-07 03:29 -37.19798 145.08813 22966 ft 444 kts 52°
2026-05-07 03:29 -37.17652 145.11628 23609 ft 447 kts 52°
2026-05-07 03:29 -37.15497 145.14459 24149 ft 450 kts 52°
2026-05-07 03:30 -37.13349 145.17266 24662 ft 453 kts 52°
2026-05-07 03:30 -37.11157 145.20116 25162 ft 456 kts 52°
2026-05-07 03:30 -37.08916 145.23024 25693 ft 459 kts 52°
2026-05-07 03:30 -37.06614 145.25755 26153 ft 466 kts 45°
2026-05-07 03:31 -37.04113 145.28362 26672 ft 470 kts 45°
2026-05-07 03:31 -37.01585 145.30976 27146 ft 473 kts 45°
2026-05-07 03:31 -36.99030 145.33604 27628 ft 476 kts 45°
2026-05-07 03:31 -36.96463 145.36246 28104 ft 479 kts 45°
2026-05-07 03:32 -36.93883 145.38907 28565 ft 482 kts 45°
2026-05-07 03:32 -36.91288 145.41587 28999 ft 484 kts 44°
2026-05-07 03:32 -36.88686 145.44270 29437 ft 487 kts 44°
2026-05-07 03:32 -36.86062 145.46972 29859 ft 490 kts 44°
2026-05-07 03:33 -36.83419 145.49688 30284 ft 492 kts 44°
2026-05-07 03:33 -36.80764 145.52413 30675 ft 495 kts 44°
2026-05-07 03:33 -36.78093 145.55153 30997 ft 498 kts 44°
2026-05-07 03:33 -36.75439 145.57875 31321 ft 501 kts 44°
2026-05-07 03:34 -36.72741 145.60639 31665 ft 503 kts 44°
2026-05-07 03:34 -36.70033 145.63409 32006 ft 504 kts 44°
2026-05-07 03:34 -36.67315 145.66187 32346 ft 506 kts 44°
2026-05-07 03:34 -36.64583 145.68977 32678 ft 508 kts 44°
2026-05-07 03:35 -36.61844 145.71773 32987 ft 510 kts 44°
2026-05-07 03:35 -36.59092 145.74578 33266 ft 513 kts 44°
2026-05-07 03:35 -36.56331 145.77391 33629 ft 513 kts 44°
2026-05-07 03:35 -36.53571 145.80197 34063 ft 513 kts 44°
2026-05-07 03:36 -36.50808 145.83006 34428 ft 512 kts 44°
2026-05-07 03:36 -36.48088 145.85765 34776 ft 511 kts 44°
2026-05-07 03:36 -36.45336 145.88557 35135 ft 511 kts 43°
2026-05-07 03:36 -36.42586 145.91343 35485 ft 509 kts 42°
2026-05-07 03:37 -36.39852 145.94112 35832 ft 508 kts 42°
2026-05-07 03:37 -36.37118 145.96880 36190 ft 505 kts 41°
2026-05-07 03:37 -36.34394 145.99634 36501 ft 505 kts 41°
2026-05-07 03:37 -36.31668 146.02377 36804 ft 505 kts 40°
2026-05-07 03:38 -36.28947 146.05123 37162 ft 503 kts 40°
2026-05-07 03:38 -36.23483 146.10645 37241 ft 509 kts 40°
2026-05-07 03:39 -36.17992 146.16162 37226 ft 504 kts 40°
2026-05-07 03:39 -36.12550 146.21612 37225 ft 503 kts 39°
2026-05-07 03:40 -36.07099 146.27085 37236 ft 505 kts 39°
2026-05-07 03:40 -36.01615 146.32564 37263 ft 507 kts 39°
2026-05-07 03:41 -35.97055 146.37116 37233 ft 508 kts 39°
2026-05-07 03:41 -35.91549 146.42600 37233 ft 508 kts 39°
2026-05-07 03:42 -35.85166 146.48977 37240 ft 509 kts 39°
2026-05-07 03:42 -35.79654 146.54430 37238 ft 508 kts 38°
2026-05-07 03:43 -35.75045 146.58987 37235 ft 505 kts 38°
2026-05-07 03:43 -35.69571 146.64406 37238 ft 506 kts 38°
2026-05-07 03:44 -35.64109 146.69813 37223 ft 505 kts 38°
2026-05-07 03:44 -35.58622 146.75211 37228 ft 506 kts 38°
2026-05-07 03:45 -35.53129 146.80616 37222 ft 505 kts 38°
2026-05-07 03:45 -35.47609 146.86041 37270 ft 512 kts 38°
2026-05-07 03:46 -35.42062 146.91491 37235 ft 509 kts 38°
2026-05-07 03:46 -35.36523 146.96906 37197 ft 510 kts 37°
2026-05-07 03:47 -35.30993 147.02286 37234 ft 507 kts 37°
2026-05-07 03:47 -35.25487 147.07666 37230 ft 506 kts 37°
2026-05-07 03:48 -35.20004 147.13003 37235 ft 508 kts 36°
2026-05-07 03:48 -35.14459 147.18394 37228 ft 507 kts 36°
2026-05-07 03:49 -35.08927 147.23757 37230 ft 506 kts 36°
2026-05-07 03:49 -35.03403 147.29100 37211 ft 508 kts 34°
2026-05-07 03:50 -34.97858 147.34460 37223 ft 507 kts 35°
2026-05-07 03:50 -34.92331 147.39796 37254 ft 506 kts 35°
2026-05-07 03:51 -34.86820 147.45103 37198 ft 508 kts 35°
2026-05-07 03:51 -34.81304 147.50415 37221 ft 507 kts 34°
2026-05-07 03:52 -34.75768 147.55717 37216 ft 505 kts 34°
2026-05-07 03:52 -34.70261 147.60980 37219 ft 504 kts 34°
2026-05-07 03:53 -34.64746 147.66266 37255 ft 506 kts 33°
2026-05-07 03:53 -34.59179 147.71571 37232 ft 510 kts 33°
2026-05-07 03:54 -34.53599 147.76893 37230 ft 509 kts 33°
2026-05-07 03:54 -34.48023 147.82198 37220 ft 510 kts 33°
2026-05-07 03:55 -34.42426 147.87506 37223 ft 511 kts 33°
2026-05-07 03:55 -34.36832 147.92813 37265 ft 510 kts 32°
2026-05-07 03:56 -34.31228 147.98114 37219 ft 512 kts 32°
2026-05-07 03:56 -34.25610 148.03419 37224 ft 512 kts 32°
2026-05-07 03:57 -34.19993 148.08720 37217 ft 512 kts 32°
2026-05-07 03:57 -34.14407 148.13973 37214 ft 512 kts 32°
2026-05-07 03:58 -34.08780 148.19260 37214 ft 513 kts 32°
2026-05-07 03:58 -34.03144 148.24547 37230 ft 513 kts 32°
2026-05-07 03:59 -33.97511 148.29824 37213 ft 512 kts 32°
2026-05-07 03:59 -33.91880 148.35088 37223 ft 513 kts 32°
2026-05-07 04:00 -33.86244 148.40346 37216 ft 512 kts 32°
2026-05-07 04:00 -33.80608 148.45599 37188 ft 512 kts 31°
2026-05-07 04:01 -33.74972 148.50837 37218 ft 513 kts 31°
2026-05-07 04:01 -33.69332 148.56075 37208 ft 511 kts 31°
2026-05-07 04:02 -33.63715 148.61283 37175 ft 508 kts 30°
2026-05-07 04:02 -33.58193 148.66396 37210 ft 500 kts 30°
2026-05-07 04:03 -33.52668 148.71487 37211 ft 503 kts 30°
2026-05-07 04:03 -33.47107 148.76618 37175 ft 506 kts 29°
2026-05-07 04:04 -33.41618 148.81691 37194 ft 493 kts 29°
2026-05-07 04:04 -33.36158 148.86689 37213 ft 495 kts 29°
2026-05-07 04:05 -33.30695 148.91699 37216 ft 499 kts 29°
2026-05-07 04:05 -33.25206 148.96743 37194 ft 493 kts 28°
2026-05-07 04:06 -33.19760 149.01720 37209 ft 493 kts 28°
2026-05-07 04:06 -33.14303 149.06694 37205 ft 494 kts 28°
2026-05-07 04:07 -33.08852 149.11672 37179 ft 491 kts 27°
2026-05-07 04:07 -33.03436 149.16606 37191 ft 490 kts 27°
2026-05-07 04:08 -32.98003 149.21531 37208 ft 491 kts 27°
2026-05-07 04:08 -32.92580 149.26461 37193 ft 489 kts 27°
2026-05-07 04:09 -32.87196 149.31344 37190 ft 485 kts 27°
2026-05-07 04:09 -32.81807 149.36206 37193 ft 487 kts 27°
2026-05-07 04:10 -32.76411 149.41083 37181 ft 488 kts 27°
2026-05-07 04:10 -32.71023 149.45949 37161 ft 483 kts 26°
2026-05-07 04:11 -32.65662 149.50771 37179 ft 484 kts 26°
2026-05-07 04:11 -32.60277 149.55605 37189 ft 486 kts 26°
2026-05-07 04:12 -32.54926 149.60409 37139 ft 483 kts 25°
2026-05-07 04:12 -32.49490 149.64992 37167 ft 477 kts 22°
2026-05-07 04:13 -32.44029 149.69488 37178 ft 480 kts 24°
2026-05-07 04:13 -32.38600 149.74102 37160 ft 480 kts 24°
2026-05-07 04:14 -32.33166 149.78681 37149 ft 477 kts 23°
2026-05-07 04:14 -32.27760 149.83190 37161 ft 476 kts 23°
2026-05-07 04:15 -32.22348 149.87717 37162 ft 477 kts 23°
2026-05-07 04:15 -32.16973 149.92221 37171 ft 476 kts 23°
2026-05-07 04:16 -32.11564 149.96731 37162 ft 476 kts 23°
2026-05-07 04:16 -32.06159 150.01232 37152 ft 476 kts 23°
2026-05-07 04:17 -32.00753 150.05733 37151 ft 475 kts 23°
2026-05-07 04:17 -31.95348 150.10224 37087 ft 475 kts 22°
2026-05-07 04:18 -31.89963 150.14695 37128 ft 473 kts 22°
2026-05-07 04:18 -31.84560 150.19162 37209 ft 476 kts 22°
2026-05-07 04:19 -31.79133 150.23655 37173 ft 475 kts 22°
2026-05-07 04:19 -31.73737 150.28122 37146 ft 473 kts 22°
2026-05-07 04:20 -31.68382 150.32526 37160 ft 474 kts 21°
2026-05-07 04:20 -31.62977 150.36975 37158 ft 474 kts 22°
2026-05-07 04:21 -31.54889 150.43631 37129 ft 472 kts 22°
2026-05-07 04:21 -31.49515 150.48040 37142 ft 471 kts 22°
2026-05-07 04:22 -31.44154 150.52432 37144 ft 469 kts 21°
2026-05-07 04:22 -31.38793 150.56817 37141 ft 470 kts 21°
2026-05-07 04:23 -31.33448 150.61189 37125 ft 467 kts 22°
2026-05-07 04:23 -31.28151 150.65505 37140 ft 468 kts 22°
2026-05-07 04:24 -31.22806 150.69862 37133 ft 468 kts 22°
2026-05-07 04:24 -31.17467 150.74209 37133 ft 468 kts 22°
2026-05-07 04:25 -31.12132 150.78544 37104 ft 466 kts 22°
2026-05-07 04:25 -31.06809 150.82894 37107 ft 472 kts 25°
2026-05-07 04:26 -31.01791 150.88020 37123 ft 481 kts 30°
2026-05-07 04:26 -30.96815 150.93240 37075 ft 481 kts 30°
2026-05-07 04:27 -30.91850 150.98407 37073 ft 478 kts 29°
2026-05-07 04:27 -30.86871 151.03556 37123 ft 480 kts 29°
2026-05-07 04:28 -30.82734 151.07855 37087 ft 477 kts 30°
2026-05-07 04:28 -30.77785 151.12992 37116 ft 477 kts 29°
2026-05-07 04:29 -30.72809 151.18122 37118 ft 479 kts 29°
2026-05-07 04:29 -30.67833 151.23269 37108 ft 478 kts 29°
2026-05-07 04:30 -30.62860 151.28402 37105 ft 478 kts 29°
2026-05-07 04:30 -30.57917 151.33487 37105 ft 478 kts 29°
2026-05-07 04:31 -30.52966 151.38586 37095 ft 475 kts 29°
2026-05-07 04:31 -30.47997 151.43679 37113 ft 477 kts 29°
2026-05-07 04:32 -30.43022 151.48785 37120 ft 477 kts 29°
2026-05-07 04:32 -30.38053 151.53878 37116 ft 477 kts 29°
2026-05-07 04:33 -30.33106 151.58938 37075 ft 472 kts 28°
2026-05-07 04:33 -30.28159 151.63979 37113 ft 475 kts 28°
2026-05-07 04:34 -30.23195 151.69043 37075 ft 476 kts 28°
2026-05-07 04:34 -30.18242 151.74094 37084 ft 474 kts 28°
2026-05-07 04:35 -30.13288 151.79127 37085 ft 473 kts 28°
2026-05-07 04:35 -30.08370 151.84120 37078 ft 474 kts 28°
2026-05-07 04:36 -30.03411 151.89150 37055 ft 474 kts 28°
2026-05-07 04:36 -29.98462 151.94162 37088 ft 474 kts 28°
2026-05-07 04:37 -29.93492 151.99186 37052 ft 475 kts 28°
2026-05-07 04:37 -29.88522 152.04202 37067 ft 475 kts 28°
2026-05-07 04:38 -29.83551 152.09218 37075 ft 474 kts 28°
2026-05-07 04:38 -29.78587 152.14216 37049 ft 474 kts 28°
2026-05-07 04:39 -29.73610 152.19222 37012 ft 474 kts 27°
2026-05-07 04:39 -29.68650 152.24204 36984 ft 472 kts 27°
2026-05-07 04:40 -29.63709 152.29159 37045 ft 473 kts 27°
2026-05-07 04:40 -29.58730 152.34141 37026 ft 476 kts 28°
2026-05-07 04:41 -29.53803 152.39080 37005 ft 472 kts 27°
2026-05-07 04:41 -29.48827 152.44039 37038 ft 476 kts 27°
2026-05-07 04:42 -29.43821 152.49033 37015 ft 477 kts 27°
2026-05-07 04:42 -29.38818 152.54026 37075 ft 476 kts 27°
2026-05-07 04:43 -29.33790 152.59014 36969 ft 479 kts 27°
2026-05-07 04:43 -29.28764 152.64016 37028 ft 478 kts 27°
2026-05-07 04:44 -29.23731 152.69010 37031 ft 479 kts 27°
2026-05-07 04:44 -29.18692 152.73996 37038 ft 479 kts 26°
2026-05-07 04:45 -29.13641 152.78998 37021 ft 480 kts 27°
2026-05-07 04:45 -29.08651 152.83938 37029 ft 476 kts 26°
2026-05-07 04:46 -29.03616 152.88890 37019 ft 478 kts 26°
2026-05-07 04:46 -28.98591 152.93849 37010 ft 477 kts 26°
2026-05-07 04:47 -28.93573 152.98789 37013 ft 477 kts 26°
2026-05-07 04:47 -28.88434 153.03448 36992 ft 456 kts 15°
2026-05-07 04:48 -28.85670 153.05032 37019 ft 434 kts
2026-05-07 04:48 -28.82854 153.06021 37028 ft 415 kts 357°
2026-05-07 04:48 -28.80034 153.06742 36750 ft 419 kts 357°
2026-05-07 04:48 -28.77139 153.07454 35919 ft 429 kts 358°
2026-05-07 04:49 -28.74215 153.08194 35189 ft 432 kts 358°
2026-05-07 04:49 -28.71289 153.08964 34688 ft 429 kts 359°
2026-05-07 04:49 -28.68394 153.09738 34215 ft 425 kts 359°
2026-05-07 04:49 -28.65528 153.10491 33660 ft 419 kts 358°
2026-05-07 04:50 -28.62711 153.11219 33187 ft 412 kts 359°
2026-05-07 04:50 -28.59935 153.11927 32743 ft 405 kts 359°
2026-05-07 04:50 -28.57239 153.12614 32276 ft 400 kts 359°
2026-05-07 04:50 -28.54541 153.13307 31811 ft 395 kts 359°
2026-05-07 04:51 -28.51877 153.13993 31355 ft 390 kts 359°
2026-05-07 04:51 -28.49246 153.14672 30895 ft 385 kts 359°
2026-05-07 04:51 -28.46646 153.15341 30445 ft 381 kts 360°
2026-05-07 04:51 -28.44072 153.15999 29883 ft 377 kts 359°
2026-05-07 04:52 -28.41539 153.16653 29452 ft 370 kts 359°
2026-05-07 04:52 -28.39048 153.17295 28997 ft 365 kts 359°
2026-05-07 04:52 -28.36586 153.17926 28545 ft 360 kts 359°
2026-05-07 04:52 -28.34155 153.18548 28092 ft 358 kts 360°
2026-05-07 04:53 -28.31732 153.19172 27698 ft 355 kts
2026-05-07 04:53 -28.29317 153.19789 27147 ft 355 kts 360°
2026-05-07 04:53 -28.26921 153.20400 26738 ft 351 kts
2026-05-07 04:53 -28.24544 153.21007 26262 ft 349 kts 360°
2026-05-07 04:54 -28.22182 153.21610 25812 ft 348 kts
2026-05-07 04:54 -28.19808 153.22214 25419 ft 351 kts
2026-05-07 04:54 -28.17397 153.22828 24755 ft 357 kts
2026-05-07 04:54 -28.14983 153.23453 24282 ft 356 kts
2026-05-07 04:55 -28.12562 153.24083 23774 ft 356 kts
2026-05-07 04:55 -28.10147 153.24708 23216 ft 356 kts
2026-05-07 04:55 -28.07735 153.25330 22683 ft 354 kts
2026-05-07 04:55 -28.05365 153.25939 22137 ft 353 kts
2026-05-07 04:56 -28.02980 153.26552 21623 ft 351 kts
2026-05-07 04:56 -28.00608 153.27162 21093 ft 348 kts
2026-05-07 04:56 -27.98247 153.27769 20576 ft 346 kts
2026-05-07 04:56 -27.95907 153.28369 20065 ft 345 kts
2026-05-07 04:57 -27.93565 153.28969 19517 ft 344 kts
2026-05-07 04:57 -27.91243 153.29565 19017 ft 341 kts
2026-05-07 04:57 -27.88930 153.30159 18484 ft 341 kts
2026-05-07 04:57 -27.86616 153.30751 17910 ft 340 kts
2026-05-07 04:58 -27.84318 153.31340 17347 ft 337 kts
2026-05-07 04:58 -27.82041 153.31925 16812 ft 334 kts
2026-05-07 04:58 -27.79780 153.32504 16274 ft 332 kts
2026-05-07 04:58 -27.77528 153.33080 15744 ft 331 kts
2026-05-07 04:59 -27.75325 153.33861 15199 ft 337 kts 18°
2026-05-07 04:59 -27.73195 153.34958 14648 ft 336 kts 18°
2026-05-07 04:59 -27.71075 153.36061 14106 ft 336 kts 19°
2026-05-07 04:59 -27.68955 153.37167 13510 ft 336 kts 19°
2026-05-07 05:00 -27.66830 153.38275 12918 ft 335 kts 19°
2026-05-07 05:00 -27.64735 153.39366 12356 ft 328 kts 19°
2026-05-07 05:00 -27.62677 153.40436 11856 ft 322 kts 19°
2026-05-07 05:00 -27.60695 153.41468 11830 ft 306 kts 19°
2026-05-07 05:01 -27.58765 153.42468 11821 ft 308 kts 19°
2026-05-07 05:01 -27.56805 153.43473 11840 ft 319 kts 19°
2026-05-07 05:01 -27.54760 153.44527 11836 ft 324 kts 20°
2026-05-07 05:01 -27.52740 153.45580 11823 ft 317 kts 19°
2026-05-07 05:02 -27.50750 153.46617 11828 ft 315 kts 19°
2026-05-07 05:02 -27.48756 153.47651 11833 ft 315 kts 19°
2026-05-07 05:02 -27.46766 153.48678 11841 ft 314 kts 19°
2026-05-07 05:02 -27.44784 153.49702 11835 ft 313 kts 19°
2026-05-07 05:03 -27.42743 153.50478 11812 ft 308 kts
2026-05-07 05:03 -27.40635 153.50640 11817 ft 301 kts 354°
2026-05-07 05:03 -27.38542 153.50569 11825 ft 301 kts 353°
2026-05-07 05:03 -27.36447 153.50489 11831 ft 301 kts 353°
2026-05-07 05:04 -27.34337 153.50406 11827 ft 304 kts 353°
2026-05-07 05:04 -27.32238 153.50327 11819 ft 301 kts 353°
2026-05-07 05:04 -27.30137 153.50251 11826 ft 302 kts 353°
2026-05-07 05:04 -27.28041 153.50176 11826 ft 302 kts 353°
2026-05-07 05:05 -27.25950 153.50093 11457 ft 310 kts 353°
2026-05-07 05:05 -27.23787 153.49992 10789 ft 309 kts 353°
2026-05-07 05:05 -27.21652 153.49892 10167 ft 305 kts 353°
2026-05-07 05:05 -27.19590 153.49798 10064 ft 287 kts 353°
2026-05-07 05:06 -27.17637 153.49690 9899 ft 275 kts 348°
2026-05-07 05:06 -27.15846 153.49051 9460 ft 268 kts 327°
2026-05-07 05:06 -27.14432 153.47740 9081 ft 261 kts 307°
2026-05-07 05:06 -27.13438 153.46071 8718 ft 255 kts 301°
2026-05-07 05:07 -27.12492 153.44380 8342 ft 256 kts 300°
2026-05-07 05:07 -27.11550 153.42688 7978 ft 256 kts 300°
2026-05-07 05:07 -27.10608 153.41006 7628 ft 254 kts 301°
2026-05-07 05:07 -27.09665 153.39326 7235 ft 254 kts 300°
2026-05-07 05:08 -27.08725 153.37656 6866 ft 249 kts 300°
2026-05-07 05:08 -27.07815 153.36021 6487 ft 244 kts 297°
2026-05-07 05:08 -27.07356 153.34246 6124 ft 234 kts 270°
2026-05-07 05:08 -27.07691 153.32528 5853 ft 225 kts 244°
2026-05-07 05:09 -27.08587 153.31146 5673 ft 213 kts 232°
2026-05-07 05:09 -27.09514 153.29899 5481 ft 203 kts 231°
2026-05-07 05:09 -27.10409 153.28714 5286 ft 193 kts 231°
2026-05-07 05:09 -27.11257 153.27588 5119 ft 186 kts 232°
2026-05-07 05:10 -27.12077 153.26492 4953 ft 180 kts 233°
2026-05-07 05:10 -27.12901 153.25456 4792 ft 176 kts 221°
2026-05-07 05:10 -27.13931 153.24722 4709 ft 177 kts 214°
2026-05-07 05:10 -27.15013 153.24061 4458 ft 177 kts 212°
2026-05-07 05:11 -27.16081 153.23438 4224 ft 167 kts 212°
2026-05-07 05:11 -27.17090 153.22857 4012 ft 159 kts 212°
2026-05-07 05:11 -27.18074 153.22292 3787 ft 157 kts 212°
2026-05-07 05:11 -27.19026 153.21744 3597 ft 152 kts 212°
2026-05-07 05:12 -27.19950 153.21216 3465 ft 148 kts 212°
2026-05-07 05:12 -27.20853 153.20697 3257 ft 143 kts 212°
2026-05-07 05:12 -27.21739 153.20189 3007 ft 142 kts 212°
2026-05-07 05:12 -27.22609 153.19690 2849 ft 140 kts 212°
2026-05-07 05:13 -27.23475 153.19195 2697 ft 139 kts 212°
2026-05-07 05:13 -27.24333 153.18717 2478 ft 140 kts 211°
2026-05-07 05:13 -27.25195 153.18230 2374 ft 137 kts 211°
2026-05-07 05:13 -27.26055 153.17731 2123 ft 142 kts 212°
2026-05-07 05:14 -27.26930 153.17218 1962 ft 141 kts 212°
2026-05-07 05:14 -27.27803 153.16701 1766 ft 143 kts 211°
2026-05-07 05:14 -27.28697 153.16193 1496 ft 142 kts 210°
2026-05-07 05:14 -27.29291 153.15876 1375 ft 137 kts 211°
2026-05-07 05:15 -27.30140 153.15380 1161 ft 141 kts 212°
2026-05-07 05:15 -27.30998 153.14878 1041 ft 141 kts 211°
2026-05-07 05:15 -27.31883 153.14369 791 ft 143 kts 213°
2026-05-07 05:15 -27.32756 153.13878 702 ft 139 kts 209°
2026-05-07 05:16 -27.33618 153.13387 502 ft 137 kts 211°
2026-05-07 05:16 -27.34451 153.12899 300 ft 136 kts 212°
2026-05-07 05:16 -27.35319 153.12404 160 ft 142 kts 212°
2026-05-07 05:16 -27.36178 153.11918 42 ft 130 kts 210°
2026-05-07 05:17 -27.36892 153.11488 18 ft 95 kts 209°
2026-05-07 05:17 -27.37334 153.11225 17 ft 38 kts 207°
2026-05-07 05:17 -27.37485 153.11140 18 ft 16 kts 204°
2026-05-07 05:17 -27.37583 153.11118 17 ft 15 kts 181°
2026-05-07 05:18 -27.37689 153.11124 17 ft 16 kts 176°
2026-05-07 05:18 -27.37802 153.11132 18 ft 15 kts 176°
2026-05-07 05:18 -27.37876 153.11177 17 ft 13 kts 120°
2026-05-07 05:18 -27.37864 153.11265 18 ft 13 kts 25°
2026-05-07 05:19 -27.37782 153.11308 19 ft 14 kts 27°
2026-05-07 05:19 -27.37696 153.11357 17 ft 14 kts 27°
2026-05-07 05:19 -27.37603 153.11410 18 ft 15 kts 27°
2026-05-07 05:19 -27.37506 153.11467 18 ft 16 kts 27°
2026-05-07 05:20 -27.37418 153.11522 17 ft 10 kts 43°
2026-05-07 05:20 -27.37418 153.11598 19 ft 12 kts 117°
2026-05-07 05:20 -27.37464 153.11700 18 ft 17 kts 116°
2026-05-07 05:20 -27.37524 153.11835 18 ft 21 kts 117°
2026-05-07 05:21 -27.37594 153.11986 19 ft 23 kts 117°
2026-05-07 05:21 -27.37749 153.12327 19 ft 25 kts 117°
2026-05-07 05:21 -27.37817 153.12470 17 ft 10 kts 118°
2026-05-07 05:22 -27.37870 153.12511 18 ft 10 kts 193°
2026-05-07 05:22 -27.37938 153.12476 17 ft 11 kts 207°
2026-05-07 05:22 -27.37984 153.12451 18 ft 2 kts 204°
2026-05-07 05:22 -27.38004 153.12441 17 ft 4 kts 199°
2026-05-07 05:23 -27.38037 153.12440 18 ft 5 kts 168°
2026-05-07 05:23 -27.38061 153.12473 17 ft 6 kts 116°
2026-05-07 05:23 -27.38083 153.12521 18 ft 8 kts 117°
2026-05-07 05:23 -27.38126 153.12559 17 ft 9 kts 164°
2026-05-07 05:24 -27.38190 153.12550 17 ft 10 kts 198°
2026-05-07 05:24 -27.38254 153.12512 18 ft 11 kts 217°
2026-05-07 05:24 -27.38263 153.12436 19 ft 10 kts 289°
2026-05-07 05:24 -27.38232 153.12362 19 ft 11 kts 296°
2026-05-07 05:25 -27.38230 153.12298 17 ft 8 kts 235°
2026-05-07 05:25 -27.38256 153.12263 19 ft 0 kts 230°